[[{"header":{"parameterUnit":"m.s-1","parameterCategory":1,"la1":30.2991,"la2":30.254,"lo1":-89.0895,"lo2":-89.0444,"dy":0.0017,"dx":0.0017,"nx":28,"ny":28,"refTime":"2025-05-20T09:00:00:Z","depth":0,"parameterNumber":2,"parameterNumberName":"U-component_of_WINDS"},"data":[0,0,0,0,0,0,0,0,0,0,0,0,0,0,0,0,0,0,0,0,0,0,0,0,0,0,0,0,0,0,0,0,0,0,0,0,0,0,0,0,0,0,0,0,0,0,0,0,0,0,0,0,0,0,0,0,0,0,2.7926,2.7925,0,2.7895,2.7895,2.7895,2.7811,2.7809,2.7807,2.7805,2.7775,2.7775,2.7776,0,0,0,0,0,0,0,0,0,0,0,0,0,2.791,2.7911,2.7926,2.7925,2.7925,2.7895,2.7895,2.7895,2.7811,2.7809,2.7807,2.7805,2.7774,2.7775,2.7776,0,0,0,0,0,0,0,0,0,0,0,0,0,2.7902,2.7911,2.7926,2.788,2.7875,2.7895,2.7895,2.7894,2.7812,2.7809,2.7806,2.7804,2.7774,2.7775,2.7777,2.7839,0,0,2.778,2.7781,0,0,0,0,0,0,0,0,2.7903,2.7903,2.7887,2.7883,2.7878,2.7854,2.7878,2.7876,2.7812,2.7836,2.7805,2.7802,2.7803,2.7802,2.7802,2.7837,2.7836,2.7781,2.7781,2.7782,2.7782,0,0,0,0,0,0,0,2.7903,2.7903,2.7914,2.7887,2.7881,2.786,2.7856,2.7877,2.7835,2.7834,2.7827,2.7825,2.78,2.7801,2.7801,2.7836,2.7781,2.7782,2.7783,2.7783,2.7917,2.792,0,0,0,0,0,0,2.791,2.7904,2.7915,2.7913,2.7884,2.7863,2.7858,2.7864,2.7835,2.7827,2.7827,2.7821,2.78,2.7799,2.78,2.7868,2.7782,2.7783,2.7784,2.7914,2.7918,2.7921,0,0,0,0,0,0,2.791,2.7912,2.7916,2.7907,2.7906,2.7866,2.7874,2.7865,2.7866,2.783,2.7822,2.7836,2.7798,2.7798,2.7829,2.7866,2.7784,2.7785,2.7911,2.7915,2.7919,2.8007,0,0,0,0,0,0,2.791,2.7913,2.7936,2.7908,2.7907,2.7947,2.7876,2.7867,2.7868,2.786,2.7836,2.7829,2.7796,2.7827,2.783,2.7866,2.7786,2.7908,2.7913,2.7918,2.8001,2.8014,2.8025,0,0,0,0,0,2.791,2.7963,2.7938,2.794,2.7935,2.7949,2.7948,2.7908,2.7872,2.7895,2.7871,2.783,2.7862,2.7831,2.7834,2.7871,2.7905,2.7911,2.7918,2.7995,2.8011,2.8025,0,0,0,0,0,0,2.7997,2.7959,2.793,2.7976,2.7966,2.7935,2.7962,2.7927,2.7928,2.792,2.7871,2.7866,2.7903,2.789,2.7857,2.7928,2.7876,2.7884,2.7935,2.795,2.7962,2.7963,2.7787,0,0,0,0,0,2.8022,2.8036,2.8002,2.8045,2.8042,2.8003,2.8008,2.7978,2.7966,2.7961,2.794,2.793,2.7937,2.7943,2.7948,2.7999,2.7991,2.8025,2.8038,2.8048,2.8054,2.8077,2.8091,2.7941,2.7941,2.7941,0,0,2.8073,2.8053,2.8066,2.8062,2.8051,2.8066,2.8,2.802,2.803,2.7964,2.7992,2.7976,2.7961,2.8002,2.8019,2.7992,2.8094,2.8056,2.8064,2.8065,2.8085,2.8099,2.8112,2.7946,2.7945,2.7944,0,0,2.8172,2.816,2.8194,2.8184,2.8167,2.8141,2.8149,2.8123,2.8109,2.8136,2.8087,2.8098,2.8113,2.8103,2.81,2.8195,2.8156,2.8198,2.8261,2.8284,2.8296,2.8306,2.8337,2.8349,2.8204,2.8205,2.8205,0,2.8238,2.8258,2.8216,2.8237,2.8236,2.8177,2.821,2.8202,2.8189,2.8189,2.8159,2.8174,2.8161,2.8197,2.822,2.822,2.8227,2.82,2.8298,2.8307,2.8316,2.8345,2.8358,2.821,2.8209,2.8209,2.8208,0,2.8338,2.8353,2.8382,2.8369,2.8372,2.8399,2.8359,2.8367,2.8337,2.8314,2.8341,2.8322,2.8321,2.8327,2.8299,2.8359,2.8343,2.8307,2.8253,2.8336,2.8363,2.8374,2.8217,2.8215,2.8214,2.8212,0,0,2.8492,2.8454,2.8465,2.8457,2.8434,2.8445,2.8469,2.8467,2.8474,2.8467,2.8484,2.8497,2.8462,2.8459,2.8429,2.8449,2.8522,2.841,2.8409,2.8429,2.8585,2.8611,2.8625,2.8497,2.8499,2.8501,2.8585,0,2.8584,2.8622,2.8583,2.8629,2.8641,2.8585,2.8605,2.8593,2.8572,2.8578,2.8555,2.8564,2.8519,2.8516,2.8534,2.851,2.8552,2.8503,2.8511,2.8512,2.8515,2.8639,2.8667,2.8747,2.8596,2.8597,2.8599,0,2.8696,2.8693,2.874,2.8711,2.8715,2.8734,2.8728,2.8736,2.872,2.8703,2.8699,2.8662,2.8682,2.8632,2.8658,2.8626,2.8627,2.8615,2.8617,2.8615,2.8559,2.8638,2.8772,2.8784,2.8615,2.8614,2.8613,0,2.88,2.8808,2.8836,2.8831,2.88,2.8814,2.8802,2.8784,2.8784,2.878,2.8779,2.8777,2.8776,2.8775,2.8737,2.8705,2.8767,2.8715,2.8752,2.8753,2.8767,2.8766,2.8901,2.8771,2.8771,2.8771,2.8771,0,2.8906,2.8936,2.8882,2.8899,2.893,2.8886,2.8918,2.89,2.8884,2.8896,2.8847,2.886,2.8811,2.8817,2.8789,2.8813,2.8814,2.8799,2.8791,2.8802,2.8804,2.8801,2.8794,2.8774,2.8773,2.8773,2.8772,0,2.9027,2.8992,2.9018,2.8986,2.8979,2.9003,2.8975,2.8989,2.8964,2.898,2.8981,2.8942,2.8947,2.891,2.8909,2.889,2.8927,2.891,2.8932,2.8926,2.8965,2.8961,2.9102,2.9117,2.898,2.8981,2.8982,0,2.9095,2.9117,2.9087,2.9091,2.908,2.9089,2.9088,2.9045,2.9047,2.903,2.9045,2.9047,2.9045,2.9056,2.9027,2.9025,2.9006,2.9056,2.9006,2.9016,2.9004,2.9002,2.9003,2.9066,2.9067,2.9069,2.907,0,2.922,2.9201,2.9203,2.9198,2.9199,2.9194,2.9185,2.9192,2.9144,2.9149,2.9153,2.9152,2.9149,2.915,2.9143,2.9129,2.9091,2.9086,2.9094,2.9105,2.9116,2.9108,2.8958,2.9083,2.9081,2.908,2.908,2.9079,2.9315,2.933,2.931,2.9314,2.9302,2.9295,2.9306,2.9282,2.9285,2.9279,2.9253,2.9262,2.9244,2.9229,2.9219,2.9225,2.9201,2.9213,2.9216,2.9219,2.9225,2.9117,2.9223,2.9223,2.9223,2.9222,2.9222,0,2.9434,2.9418,2.9422,2.941,2.9412,2.9377,2.9365,2.9369,2.9377,2.9363,2.9362,2.9366,2.9367,2.9338,2.9334,2.9344,2.9326,2.9344,2.9342,2.9339,2.9248,2.924,2.9358,2.9358,2.9358,2.9358,2.9358,2.9358,2.9496,2.952,2.9499,2.9516,2.95,2.9507,2.9503,2.9495,2.9484,2.949,2.949,2.9471,2.9451,2.9445,2.9444,2.9435,2.9435,2.9459,2.9444,2.9359,2.9346,2.9333,2.9325,2.946,2.946,2.9534,2.9535,2.9535]},{"header":{"parameterUnit":"m.s-1","parameterCategory":1,"la1":30.2991,"la2":30.254,"lo1":-89.0895,"lo2":-89.0444,"dy":0.0017,"dx":0.0017,"nx":28,"ny":28,"refTime":"2025-05-20T09:00:00:Z","depth":0,"parameterNumber":3,"parameterNumberName":"V-component_of_WINDS"},"data":[0,0,0,0,0,0,0,0,0,0,0,0,0,0,0,0,0,0,0,0,0,0,0,0,0,0,0,0,0,0,0,0,0,0,0,0,0,0,0,0,0,0,0,0,0,0,0,0,0,0,0,0,0,0,0,0,0,0,6.6831,6.6832,0,6.6942,6.6943,6.6944,6.6911,6.6909,6.6907,6.6905,6.701,6.7015,6.702,0,0,0,0,0,0,0,0,0,0,0,0,0,6.6582,6.6587,6.6831,6.6832,6.6834,6.6942,6.6943,6.6945,6.6912,6.6909,6.6906,6.6904,6.7008,6.7014,6.702,0,0,0,0,0,0,0,0,0,0,0,0,0,6.6691,6.6588,6.6831,6.683,6.6832,6.6941,6.6943,6.6945,6.6912,6.6909,6.6905,6.6902,6.7006,6.7014,6.7021,6.7135,0,0,6.7044,6.7047,0,0,0,0,0,0,0,0,6.6685,6.67,6.6829,6.6831,6.6832,6.6909,6.6894,6.7008,6.6913,6.6881,6.6905,6.6901,6.6979,6.6988,6.7016,6.714,6.7144,6.7044,6.7049,6.7052,6.7054,0,0,0,0,0,0,0,6.6677,6.6695,6.6874,6.6831,6.6833,6.6822,6.6834,6.6915,6.6948,6.6884,6.6882,6.6896,6.6979,6.7009,6.7018,6.7146,6.7044,6.7051,6.7055,6.7058,6.7366,6.737,0,0,0,0,0,0,6.667,6.6689,6.6871,6.6878,6.6749,6.6829,6.6842,6.6888,6.6947,6.6953,6.6899,6.6894,6.6998,6.701,6.7022,6.7158,6.7052,6.7059,6.7063,6.7363,6.7367,6.7371,0,0,0,0,0,0,6.6665,6.6686,6.6866,6.6783,6.6805,6.6837,6.6889,6.6892,6.6922,6.6958,6.6963,6.6924,6.6996,6.7012,6.7107,6.7161,6.7062,6.7069,6.7358,6.7364,6.7369,6.7432,0,0,0,0,0,0,6.6658,6.6685,6.6731,6.6784,6.681,6.6953,6.6892,6.6896,6.6936,6.6931,6.6983,6.6989,6.6995,6.7096,6.7115,6.717,6.7075,6.7353,6.7361,6.7367,6.7425,6.7439,6.7451,0,0,0,0,0,6.6649,6.6742,6.6733,6.6755,6.6868,6.6956,6.697,6.6977,6.6941,6.6985,6.7008,6.6987,6.7153,6.7106,6.7127,6.7185,6.735,6.7359,6.7367,6.7419,6.7436,6.7451,0,0,0,0,0,0,6.6691,6.6749,6.674,6.6854,6.6901,6.695,6.7007,6.6995,6.7051,6.7044,6.7048,6.706,6.7157,6.7181,6.7128,6.7297,6.7245,6.7258,6.7279,6.7295,6.7308,6.7299,6.7081,0,0,0,0,0,6.6715,6.6784,6.683,6.6926,6.695,6.6975,6.7013,6.7015,6.7062,6.7081,6.711,6.7155,6.7216,6.7257,6.7316,6.7429,6.7438,6.7478,6.7491,6.7502,6.7512,6.7571,6.7589,6.7399,6.7399,6.7399,0,0,6.6762,6.6802,6.6845,6.6936,6.6972,6.7041,6.6991,6.7066,6.7117,6.7091,6.7184,6.7207,6.7256,6.7361,6.7408,6.7383,6.7567,6.7512,6.752,6.7525,6.7582,6.76,6.7616,6.7405,6.7404,6.7403,0,0,6.6884,6.6923,6.7007,6.7044,6.7101,6.7116,6.7136,6.7188,6.7203,6.7297,6.7279,6.7337,6.7444,6.748,6.7512,6.7647,6.7628,6.7666,6.7732,6.779,6.7805,6.7818,6.7865,6.7881,6.7676,6.7676,6.7677,0,6.6935,6.7041,6.705,6.7128,6.7166,6.7149,6.7232,6.7268,6.7339,6.7365,6.7337,6.747,6.7502,6.7614,6.7647,6.7674,6.7695,6.7659,6.7803,6.7816,6.7828,6.7873,6.789,6.768,6.768,6.768,6.7679,0,6.71,6.7174,6.7234,6.7307,6.7353,6.7432,6.7451,6.7495,6.7493,6.7511,6.7604,6.7643,6.7708,6.7735,6.7732,6.7846,6.7828,6.7802,6.7749,6.7851,6.7892,6.7909,6.7686,6.7685,6.7684,6.7683,0,0,6.7252,6.7329,6.7351,6.7383,6.7444,6.7499,6.7576,6.7644,6.7681,6.773,6.7794,6.7885,6.786,6.7897,6.7898,6.7949,6.8051,6.7915,6.7916,6.7938,6.8176,6.8195,6.8214,6.8039,6.8043,6.8045,6.8171,0,6.7378,6.7518,6.7528,6.7653,6.7719,6.7704,6.7771,6.7814,6.7832,6.7889,6.7908,6.7972,6.7935,6.7957,6.8007,6.8028,6.8098,6.8019,6.8096,6.8098,6.8083,6.8236,6.8257,6.8374,6.8187,6.819,6.8192,0,6.7544,6.7601,6.7733,6.7784,6.7812,6.7873,6.7934,6.799,6.8037,6.8046,6.8088,6.8081,6.8158,6.8104,6.8208,6.8154,6.8185,6.82,6.8205,6.8211,6.8151,6.8245,6.8411,6.8428,6.8218,6.8216,6.8214,0,6.7639,6.7749,6.7842,6.787,6.7932,6.7975,6.8002,6.8046,6.8085,6.8138,6.8163,6.8223,6.8255,6.83,6.8309,6.827,6.8413,6.836,6.842,6.842,6.845,6.8448,6.8622,6.8473,6.8473,6.8472,6.8472,0,6.7778,6.7859,6.7886,6.7943,6.8033,6.8042,6.8129,6.8153,6.8193,6.8252,6.8241,6.8296,6.8305,6.8362,6.8369,6.8453,6.8467,6.8475,6.8476,6.8476,6.8475,6.8496,6.8487,6.8477,6.8476,6.8475,6.8474,0,6.7899,6.7921,6.8021,6.8072,6.8087,6.815,6.8192,6.8245,6.8262,6.8337,6.8355,6.8381,6.8447,6.8461,6.8538,6.8543,6.8642,6.8635,6.8627,6.8626,6.8685,6.8679,6.8878,6.8904,6.8739,6.874,6.8742,0,6.7986,6.8048,6.8106,6.8147,6.8177,6.8242,6.8282,6.8293,6.8335,6.8393,6.8439,6.8504,6.8557,6.8662,6.8686,6.8744,6.8738,6.8803,6.8746,6.8744,6.8737,6.8733,6.8738,6.8814,6.8816,6.8817,6.8818,0,6.8137,6.8145,6.8205,6.827,6.8319,6.8369,6.8417,6.845,6.8466,6.8514,6.8582,6.8623,6.8703,6.8767,6.8825,6.885,6.8836,6.8836,6.8853,6.8853,6.8845,6.8849,6.8656,6.8831,6.883,6.8829,6.8828,6.8828,6.8243,6.8297,6.8347,6.8414,6.8451,6.8496,6.8549,6.8573,6.8632,6.8699,6.8701,6.8776,6.8819,6.8897,6.8925,6.8981,6.896,6.8985,6.8991,6.8996,6.9001,6.8838,6.8991,6.8991,6.8991,6.8991,6.899,0,6.8392,6.8423,6.8485,6.8554,6.8606,6.8592,6.8643,6.8687,6.8754,6.8797,6.8849,6.8927,6.8989,6.9018,6.9078,6.9117,6.9112,6.9132,6.9129,6.9134,6.9017,6.8996,6.9135,6.9135,6.9135,6.9135,6.9135,6.9135,6.8476,6.8567,6.858,6.8688,6.8718,6.8793,6.8824,6.8864,6.8898,6.8987,6.9039,6.9059,6.9095,6.9158,6.9213,6.922,6.9241,6.9264,6.9268,6.9157,6.9143,6.9129,6.9109,6.9269,6.927,6.938,6.9381,6.9382]}]]